Slayton, MN

10:15 AM CDT on April 27, 2017 (GMT -0500)
Slayton

Weather History for KDVP - December, 2013

Change the Weather History Date:

Saturday, December 28, 2013

  Actual Average (KOTG) Record (KOTG)
Temperature  
Mean Temperature 20 °F -  
Max Temperature 38 °F 22 °F 53 °F (2002)
Min Temperature 0 °F 8 °F -19 °F (1993)
Degree Days  
Heating Degree Days 46    
Moisture  
Dew Point 22 °F    
Average Humidity 84    
Maximum Humidity 97    
Minimum Humidity 68    
Precipitation  
Precipitation 0.00 in - - ()
Sea Level Pressure  
Sea Level Pressure 29.84 in    
Wind  
Wind Speed 16 mph (WSW)    
Max Wind Speed 37 mph    
Max Gust Speed 47 mph    
Visibility 8 miles    
Events Snow    
Averages and records for this station are not official NWS values.
T = Trace of Precipitation, MM = Missing Value Source: NWS Daily Summary

Daily Weather History Graph

Daily Weather History Graph

Search for Another Location

Airport or City:

Trip Planner

Search our weather history database for the weather conditions in past years. The results will help you decide how hot, cold, wet, or windy it might be!

Date:

Astronomy

Dec. 28, 2013 Rise Set
Actual Time 7:57 AM CST 4:52 PM CST
Civil Twilight 7:24 AM CST 5:25 PM CST
Nautical Twilight 6:47 AM CST 6:02 PM CST
Astronomical Twilight 6:12 AM CST 6:37 PM CST
Moon 3:30 AM CST (12/28) 1:48 PM CST (12/28)
Length of Visible Light 10h 01m
Length of Day
8h 55m
Waning Crescent, 19% of the Moon is Illuminated
Dec 28
Waning Crescent
Jan 1
New
Jan 7
First Quarter
Jan 15
Full
Jan 23
Last Quarter

Hourly Weather History & Observations

Time (CST) Temp. Windchill Dew Point Humidity Pressure Visibility Wind Dir Wind Speed Gust Speed Precip Events Conditions
12:14 AM 26.6 °F 20.0 °F 25.3 °F 95% 29.95 in 10.0 mi South 5.8 mph - N/A   Clear
12:34 AM 26.6 °F 22.6 °F 25.2 °F 94% 29.95 in 10.0 mi South 3.5 mph - N/A   Clear
12:55 AM 24.8 °F 20.5 °F 23.5 °F 95% 29.94 in 10.0 mi South 3.5 mph - N/A   Clear
1:13 AM 24.4 °F 18.6 °F 23.4 °F 96% 29.92 in 10.0 mi South 4.6 mph - N/A   Clear
1:34 AM 29.3 °F 18.2 °F 27.5 °F 93% 29.91 in 10.0 mi SW 15.0 mph - N/A   Clear
1:54 AM 32.0 °F 21.2 °F 29.3 °F 90% 29.91 in 10.0 mi SW 16.1 mph - N/A   Clear
2:14 AM 32.0 °F 21.6 °F 28.9 °F 88% 29.90 in 10.0 mi SSW 15.0 mph - N/A   Clear
2:34 AM 30.2 °F 19.8 °F 28.0 °F 92% 29.90 in 10.0 mi SW 13.8 mph - N/A   Clear
2:53 AM 31.6 °F 21.6 °F 28.4 °F 88% 29.89 in 10.0 mi SSW 13.8 mph - N/A   Clear
3:14 AM 30.2 °F 19.3 °F 27.5 °F 90% 29.89 in 10.0 mi SSW 15.0 mph - N/A   Clear
3:35 AM 30.0 °F 20.5 °F 27.1 °F 89% 29.88 in 10.0 mi SSW 11.5 mph - N/A   Clear
3:55 AM 29.5 °F 18.8 °F 27.0 °F 90% 29.87 in 10.0 mi SSW 13.8 mph - N/A   Clear
4:14 AM 28.6 °F 18.2 °F 25.9 °F 90% 29.85 in 10.0 mi SSW 12.7 mph - N/A   Clear
4:33 AM 27.5 °F 15.9 °F 25.3 °F 92% 29.84 in 10.0 mi SSW 15.0 mph - N/A   Clear
4:54 AM 31.5 °F 20.1 °F 27.0 °F 83% 29.83 in 10.0 mi SSW 17.3 mph - N/A   Clear
5:14 AM 30.7 °F 19.6 °F 26.6 °F 85% 29.83 in 10.0 mi South 16.1 mph - N/A   Clear
5:34 AM 29.1 °F 16.7 °F 25.2 °F 85% 29.82 in 10.0 mi SSW 18.4 mph - N/A   Clear
5:54 AM 28.8 °F 17.0 °F 25.3 °F 87% 29.82 in 10.0 mi South 16.1 mph - N/A   Clear
6:13 AM 29.1 °F 18.4 °F 25.3 °F 86% 29.81 in 10.0 mi South 13.8 mph - N/A   Clear
6:34 AM 29.1 °F 17.9 °F 24.8 °F 84% 29.80 in 10.0 mi SSW 15.0 mph - N/A   Clear
6:55 AM 30.9 °F 20.2 °F 25.9 °F 82% 29.80 in 10.0 mi South 15.0 mph - N/A   Clear
7:14 AM 30.9 °F 20.2 °F 25.3 °F 80% 29.79 in 10.0 mi South 15.0 mph - N/A   Clear
7:34 AM 30.2 °F 20.8 °F 24.8 °F 80% 29.78 in 10.0 mi South 11.5 mph - N/A   Clear
7:54 AM 30.4 °F 21.5 °F 24.6 °F 79% 29.77 in 10.0 mi South 10.4 mph - N/A   Clear
8:14 AM 29.5 °F 20.4 °F 24.3 °F 81% 29.76 in 10.0 mi SSE 10.4 mph - N/A   Clear
8:34 AM 31.1 °F 22.4 °F 25.2 °F 79% 29.75 in 10.0 mi South 10.4 mph - N/A   Clear
8:53 AM 32.5 °F 23.2 °F 25.7 °F 76% 29.74 in 10.0 mi South 12.7 mph - N/A   Clear
9:14 AM 33.8 °F 23.2 °F 26.2 °F 74% 29.73 in 10.0 mi SSW 17.3 mph - N/A   Clear
9:34 AM 34.0 °F 22.7 °F 26.8 °F 75% 29.73 in 10.0 mi SSW 19.6 mph - N/A   Clear
9:53 AM 34.7 °F 23.1 °F 27.3 °F 74% 29.73 in 10.0 mi SSW 21.9 mph - N/A   Clear
10:14 AM 35.2 °F 23.8 °F 27.7 °F 74% 29.72 in 10.0 mi SW 21.9 mph - N/A   Clear
10:34 AM 36.9 °F 25.4 °F 28.6 °F 72% 29.70 in 10.0 mi SW 24.2 mph - N/A   Clear
10:53 AM 37.2 °F 25.4 °F 28.2 °F 70% 29.70 in 10.0 mi SW 26.5 mph - N/A   Clear
11:14 AM 36.5 °F 24.7 °F 28.6 °F 73% 29.69 in 10.0 mi SW 25.3 mph - N/A   Clear
11:35 AM 37.2 °F 26.1 °F 28.6 °F 71% 29.68 in 10.0 mi SSW 23.0 mph - N/A   Clear
11:55 AM 36.9 °F 26.5 °F 29.3 °F 74% 29.67 in 10.0 mi SSW 19.6 mph - N/A   Clear
12:15 PM 38.5 °F 28.3 °F 29.3 °F 70% 29.67 in 10.0 mi SW 20.7 mph - N/A   Clear
12:34 PM 38.3 °F 28.1 °F 28.6 °F 68% 29.66 in 10.0 mi SW 20.7 mph - N/A   Clear
12:54 PM 38.5 °F 28.3 °F 29.1 °F 69% 29.64 in 10.0 mi SW 20.7 mph - N/A   Clear
1:14 PM 38.1 °F 27.9 °F 28.9 °F 70% 29.64 in 10.0 mi SW 20.7 mph - N/A   Clear
1:34 PM 37.6 °F 27.7 °F 29.8 °F 74% 29.65 in 10.0 mi SW 18.4 mph - N/A   Clear
1:54 PM 37.6 °F 30.5 °F 29.7 °F 73% 29.67 in 10.0 mi SW 10.4 mph - N/A   Clear
2:14 PM 37.6 °F 31.6 °F 29.8 °F 74% 29.67 in 10.0 mi WSW 8.1 mph - N/A   Clear
2:34 PM 38.3 °F 32.5 °F 29.7 °F 71% 29.68 in 10.0 mi West 8.1 mph - N/A   Clear
2:54 PM 37.8 °F 30.7 °F 29.5 °F 72% 29.68 in 10.0 mi West 10.4 mph - N/A   Clear
3:14 PM 37.4 °F 29.8 °F 30.0 °F 75% 29.70 in 10.0 mi WNW 11.5 mph - N/A   Clear
3:35 PM 37.4 °F 28.5 °F 30.2 °F 75% 29.71 in 10.0 mi WNW 15.0 mph - N/A   Clear
3:54 PM 36.1 °F 26.5 °F 30.7 °F 81% 29.73 in 10.0 mi NW 16.1 mph 23.0 mph N/A   Clear
4:15 PM 34.3 °F 22.3 °F 30.2 °F 85% 29.75 in 10.0 mi NW 23.0 mph 34.5 mph N/A   Scattered Clouds
4:34 PM 30.4 °F 16.2 °F 28.6 °F 93% 29.78 in 10.0 mi NW 26.5 mph 29.9 mph N/A   Mostly Cloudy
4:55 PM 27.5 °F 12.9 °F 26.8 °F 97% 29.80 in 5.0 mi NW 24.2 mph 32.2 mph N/A   Overcast
5:15 PM 25.7 °F 10.2 °F 24.8 °F 96% 29.82 in 3.0 mi NW 25.3 mph 35.7 mph N/A   Overcast
5:34 PM 23.9 °F 7.2 °F 23.2 °F 97% 29.83 in 2.0 mi NNW 27.6 mph 34.5 mph N/A Snow Light Snow
5:54 PM 21.2 °F 3.0 °F 20.5 °F 97% 29.86 in 4.0 mi NW 29.9 mph 39.1 mph N/A   Overcast
6:13 PM 19.9 °F 1.8 °F 18.9 °F 96% 29.88 in 3.0 mi NW 27.6 mph 34.5 mph N/A   Overcast
6:34 PM 18.1 °F -2.0 °F 16.7 °F 94% 29.90 in 4.0 mi NW 33.4 mph 38.0 mph N/A   Overcast
6:54 PM 14.9 °F -3.5 °F 12.6 °F 90% 29.92 in 3.0 mi NNW 23.0 mph 39.1 mph N/A Snow Light Snow
7:13 PM 13.6 °F -7.9 °F 10.8 °F 88% 29.93 in 2.0 mi NW 32.2 mph 39.1 mph N/A Snow Light Snow
7:34 PM 11.5 °F -9.6 °F 8.2 °F 87% 29.96 in 2.5 mi NW 27.6 mph 47.2 mph N/A Snow Light Snow
7:54 PM 10.2 °F -13.2 °F 7.2 °F 87% 29.97 in 1.2 mi NW 34.5 mph 46.0 mph N/A Snow Light Snow
8:14 PM 9.0 °F -14.3 °F 6.1 °F 88% 29.98 in 1.0 mi NW 32.2 mph 44.9 mph N/A Snow Light Snow
8:34 PM 7.9 °F -17.0 °F 5.0 °F 88% 29.99 in 0.8 mi NW 36.8 mph 43.7 mph N/A Snow Light Snow
8:54 PM 6.8 °F -17.6 °F 4.1 °F 89% 30.00 in 0.8 mi NW 33.4 mph 41.4 mph N/A Snow Light Snow
9:14 PM 5.9 °F -18.8 °F 2.8 °F 87% 30.01 in 0.8 mi NW 33.4 mph 41.4 mph N/A Snow Light Snow
9:34 PM 5.0 °F -17.9 °F 2.1 °F 88% 30.03 in 1.0 mi NW 26.5 mph 39.1 mph N/A Snow Light Snow
9:54 PM 4.5 °F -21.4 °F 1.2 °F 86% 30.04 in 0.8 mi NW 35.7 mph 44.9 mph N/A Snow Light Snow
10:14 PM 3.6 °F -21.7 °F -0.0 °F 85% 30.06 in 0.8 mi NNW 32.2 mph 41.4 mph N/A Snow Light Snow
10:35 PM 3.0 °F -21.7 °F -0.6 °F 85% 30.07 in 1.0 mi NNW 29.9 mph 40.3 mph N/A Snow Light Snow
10:54 PM 2.7 °F -21.8 °F -1.3 °F 84% 30.08 in 1.2 mi NNW 28.8 mph 36.8 mph N/A   Overcast
11:16 PM 1.8 °F -23.4 °F -2.2 °F 83% 30.09 in 1.5 mi NNW 29.9 mph 36.8 mph N/A   Overcast
11:34 PM 1.2 °F -24.5 °F -2.6 °F 84% 30.09 in 2.0 mi NW 31.1 mph 40.3 mph N/A   Overcast
11:55 PM 0.5 °F -24.0 °F -3.8 °F 82% 30.11 in 4.0 mi NNW 26.5 mph 40.3 mph N/A   Overcast